EW0624 Weather Reports


time (UTC)temp
F
wind
direction
speed
knots
gust
knots
rain 1hr
in
rain 24hr
in
rain mn
in
humidity
%
barometer
mb
20260506215404 53 34 0.0 0.0 0.00 0.06 0.06 93 1013.5
20260506214904 53 34 0.0 0.0 0.00 0.06 0.06 93 1013.5
20260506214404 53 35 0.0 0.0 0.00 0.06 0.06 93 1013.5
20260506213904 53 34 0.0 0.0 0.00 0.06 0.06 92 1013.5
20260506213404 54 34 0.0 0.0 0.00 0.06 0.06 92 1013.6
20260506212404 54 32 0.0 0.0 0.00 0.06 0.06 92 1013.5
20260506210404 54 29 0.9 2.6 0.00 0.06 0.06 92 1013.5
20260506205904 54 28 0.9 2.6 0.00 0.06 0.06 91 1013.5
20260506205404 54 28 0.0 1.7 0.00 0.06 0.06 91 1013.5
20260506204904 54 27 1.7 4.3 0.00 0.06 0.06 91 1013.5
20260506204404 54 36 0.9 2.6 0.00 0.06 0.06 91 1013.5
20260506203904 54 36 0.9 2.6 0.00 0.06 0.06 91 1013.5
20260506203404 54 37 2.6 4.3 0.00 0.06 0.06 91 1013.5
20260506202904 54 49 2.6 4.3 0.00 0.06 0.06 91 1013.5
20260506202404 54 10 0.9 7.0 0.00 0.06 0.06 91 1013.5
20260506201904 54 22 3.5 5.2 0.00 0.06 0.06 91 1013.5
20260506201404 54 26 1.7 5.2 0.00 0.06 0.06 91 1013.4
20260506200904 54 355 2.6 5.2 0.00 0.06 0.06 91 1013.3
20260506200404 54 29 0.9 7.0 0.00 0.06 0.06 92 1013.3
20260506195905 54 20 5.2 7.0 0.00 0.06 0.06 92 1013.4
20260506195404 54 51 5.2 6.1 0.00 0.06 0.06 92 1013.3
20260506194404 54 35 6.1 8.7 0.00 0.06 0.06 92 1013.2
20260506193904 55 30 3.5 7.8 0.00 0.06 0.06 91 1013.2
20260506193404 55 47 4.3 7.8 0.00 0.06 0.06 91 1013.1
20260506192904 55 22 0.9 2.6 0.00 0.06 0.06 91 1013.2
20260506192404 55 25 3.5 7.8 0.00 0.06 0.06 90 1013.2
20260506191904 55 9 2.6 7.8 0.00 0.06 0.06 90 1013.1
20260506191404 55 31 2.6 5.2 0.00 0.06 0.06 89 1013.1
20260506190904 55 1 2.6 7.8 0.00 0.06 0.06 89 1013.0
20260506190404 55 40 1.7 5.2 0.00 0.06 0.06 89 1013.1
20260506185904 55 21 1.7 7.8 0.00 0.06 0.06 88 1013.1
20260506185404 55 16 2.6 7.8 0.00 0.06 0.06 88 1013.1
20260506184904 55 50 0.9 2.6 0.00 0.06 0.06 88 1013.1
20260506184404 55 328 2.6 5.2 0.00 0.06 0.06 88 1013.1
20260506183905 55 5 0.9 2.6 0.00 0.06 0.06 88 1013.0
20260506183404 55 5 0.9 2.6 0.00 0.06 0.06 87 1013.0
20260506182904 56 4 2.6 7.0 0.00 0.06 0.06 87 1012.9
20260506182404 56 32 2.6 5.2 0.00 0.06 0.06 87 1013.0
20260506181904 55 331 2.6 6.1 0.00 0.06 0.06 86 1013.0
20260506181404 55 15 7.0 10.4 0.00 0.06 0.06 86 1013.0
20260506180404 56 19 6.1 12.2 0.00 0.06 0.06 85 1012.9
20260506175404 56 16 6.1 10.4 0.00 0.06 0.06 85 1012.9
20260506174904 56 322 7.8 11.3 0.00 0.06 0.06 85 1013.0
20260506174404 56 15 6.1 10.4 0.00 0.06 0.06 85 1013.0
20260506173404 56 355 9.6 11.3 0.00 0.06 0.06 84 1013.0
20260506172404 56 336 8.7 13.0 0.00 0.06 0.06 83 1013.0
20260506171904 56 335 7.0 11.3 0.00 0.06 0.06 82 1013.0
20260506171404 56 358 8.7 12.2 0.00 0.06 0.06 81 1013.0
20260506170904 57 2 6.1 10.4 0.00 0.06 0.06 80 1012.9
20260506170404 57 355 4.3 10.4 0.00 0.06 0.06 81 1012.9
20260506165904 57 0 5.2 10.4 0.00 0.06 0.06 80 1012.9
20260506165404 57 316 4.3 10.4 0.00 0.06 0.06 81 1012.8
20260506164404 57 353 7.8 11.3 0.00 0.06 0.06 80 1012.9
20260506163903 57 337 4.3 10.4 0.00 0.06 0.06 79 1012.8
20260506163404 58 28 4.3 8.7 0.00 0.06 0.06 78 1012.9
20260506162904 57 16 5.2 11.3 0.00 0.06 0.06 78 1012.8
20260506162404 57 15 7.8 12.2 0.00 0.06 0.06 78 1012.8
20260506161904 57 4 3.5 11.3 0.00 0.06 0.06 79 1012.8
20260506161405 57 15 7.8 11.3 0.00 0.06 0.06 80 1012.7
20260506160904 58 47 6.1 11.3 0.00 0.06 0.06 80 1012.7
20260506155404 58 12 2.6 7.8 0.00 0.06 0.06 82 1012.7
20260506154904 58 9 5.2 10.4 0.00 0.06 0.06 82 1012.8
20260506154404 58 8 7.0 11.3 0.00 0.06 0.06 83 1012.8
20260506153904 58 15 3.5 8.7 0.00 0.06 0.06 84 1012.8
20260506153404 58 337 7.0 11.3 0.00 0.06 0.06 84 1012.9
20260506152905 57 18 7.8 11.3 0.00 0.06 0.06 84 1012.9
20260506152404 57 33 7.8 12.2 0.00 0.06 0.06 83 1013.0
20260506151404 58 31 6.1 11.3 0.01 0.06 0.06 83 1013.1
20260506150404 57 3 4.3 10.4 0.02 0.06 0.06 85 1013.1
20260506145904 57 38 4.3 10.4 0.02 0.06 0.06 85 1013.2
20260506145404 57 25 5.2 10.4 0.03 0.06 0.06 85 1013.2
20260506144903 57 14 6.1 11.3 0.04 0.06 0.06 86 1013.2
20260506144403 57 29 2.6 7.8 0.04 0.06 0.06 86 1013.3
20260506143903 57 5 3.5 11.3 0.04 0.06 0.06 85 1013.2
20260506142903 57 10 2.6 7.8 0.04 0.06 0.06 88 1013.3
20260506142402 56 43 0.9 2.6 0.04 0.06 0.06 87 1013.3
20260506141903 56 354 0.9 5.2 0.04 0.06 0.06 86 1013.4
20260506141403 56 9 2.6 6.1 0.03 0.05 0.05 86 1013.4
20260506140903 57 45 0.9 2.6 0.03 0.05 0.05 84 1013.6
20260506135902 58 141 1.7 2.6 0.02 0.03 0.03 83 1013.7
20260506134903 58 273 1.7 2.6 0.00 0.02 0.02 81 1013.8
20260506133903 58 263 1.7 6.1 0.00 0.09 0.02 81 1013.8
20260506133403 58 301 4.3 8.7 0.00 0.09 0.02 82 1013.9
20260506132403 58 239 5.2 8.7 0.00 0.09 0.02 81 1014.0
20260506131403 57 318 2.6 7.0 0.00 0.10 0.02 80 1014.1
20260506130903 58 324 3.5 7.0 0.00 0.10 0.02 79 1014.1
20260506125902 57 357 1.7 4.3 0.00 0.10 0.02 80 1014.1
20260506125403 57 14 4.3 7.8 0.00 0.10 0.02 80 1014.1
20260506124902 57 12 5.2 8.7 0.00 0.10 0.02 79 1014.1
20260506124403 57 33 2.6 7.8 0.00 0.10 0.02 80 1014.2
20260506123903 57 0 6.1 8.7 0.00 0.10 0.02 80 1014.2
20260506123403 57 347 7.0 10.4 0.00 0.10 0.02 80 1014.2
20260506122903 57 324 2.6 8.7 0.00 0.10 0.02 81 1014.2
20260506122403 56 343 7.8 11.3 0.00 0.10 0.02 81 1014.3
20260506121403 56 343 6.1 11.3 0.00 0.10 0.02 81 1014.3
20260506120903 56 302 7.8 11.3 0.00 0.10 0.02 81 1014.3
20260506120403 57 340 8.7 13.9 0.00 0.10 0.02 79 1014.3
20260506115903 58 334 7.8 12.2 0.00 0.11 0.02 77 1014.3
20260506115403 59 312 1.7 7.0 0.00 0.11 0.02 72 1014.3
20260506114902 59 0 4.3 7.0 0.00 0.11 0.02 69 1014.3
20260506114403 59 298 0.9 2.6 0.00 0.11 0.02 69 1014.3
20260506112903 59 63 2.6 7.0 0.00 0.11 0.02 71 1014.3
20260506111903 58 322 3.5 5.2 0.00 0.11 0.02 72 1014.4
20260506111403 58 355 0.9 5.2 0.00 0.11 0.02 75 1014.4
20260506110903 57 267 0.0 5.2 0.00 0.11 0.02 76 1014.4
20260506105903 57 291 4.3 7.0 0.00 0.11 0.02 75 1014.5
20260506105403 57 279 4.3 7.8 0.00 0.11 0.02 77 1014.5
20260506104903 57 294 0.9 7.0 0.00 0.11 0.02 77 1014.5
20260506104403 57 311 1.7 7.0 0.00 0.11 0.02 78 1014.5
20260506103903 56 318 2.6 7.0 0.00 0.11 0.02 79 1014.6
20260506103403 56 331 4.3 8.7 0.00 0.11 0.02 79 1014.6
20260506102904 56 299 1.7 6.1 0.00 0.12 0.02 81 1014.5
20260506102403 56 318 0.9 7.0 0.00 0.12 0.02 82 1014.5
20260506101903 56 281 1.7 5.2 0.00 0.12 0.02 81 1014.6
20260506101403 56 292 3.5 7.0 0.00 0.12 0.02 81 1014.6
20260506100903 56 264 3.5 7.8 0.00 0.12 0.02 82 1014.6
20260506100403 55 260 0.9 4.3 0.00 0.13 0.02 83 1014.6
20260506095903 55 307 1.7 6.1 0.00 0.13 0.02 84 1014.6
20260506095403 55 235 3.5 6.1 0.00 0.13 0.02 84 1014.6
20260506094903 55 267 2.6 7.0 0.00 0.13 0.02 84 1014.6
20260506094403 54 301 0.0 2.6 0.00 0.13 0.02 85 1014.6
20260506093903 54 299 0.9 4.3 0.00 0.13 0.02 85 1014.6
20260506092906 54 285 0.0 2.6 0.00 0.13 0.02 87 1014.6
20260506091903 54 284 0.9 2.6 0.00 0.13 0.02 88 1014.6
20260506091403 54 265 0.0 1.7 0.00 0.13 0.02 89 1014.6
20260506090903 53 264 0.9 2.6 0.00 0.13 0.02 89 1014.6
20260506090403 53 273 1.7 2.6 0.00 0.13 0.02 90 1014.6
20260506085904 53 252 0.9 2.6 0.00 0.13 0.02 90 1014.6
20260506085403 52 249 0.0 1.7 0.00 0.13 0.02 90 1014.6
20260506084903 52 248 0.9 2.6 0.00 0.13 0.02 91 1014.6
20260506084403 52 248 0.0 0.0 0.00 0.13 0.02 91 1014.7
20260506083402 51 248 0.9 2.6 0.00 0.13 0.02 91 1014.7
20260506082903 51 249 0.0 5.2 0.00 0.13 0.02 92 1014.7
20260506080903 50 241 1.7 2.6 0.00 0.13 0.02 95 1014.8
20260506073403 50 275 0.0 1.7 0.00 0.13 0.02 97 1014.6
20260506072903 50 275 0.0 0.0 0.00 0.13 0.02 98 1014.6
20260506071903 49 275 1.7 2.6 0.00 0.13 0.02 98 1014.6
20260506071403 49 275 1.7 2.6 0.00 0.13 0.02 98 1014.6
20260506070903 49 275 0.0 1.7 0.00 0.13 0.02 98 1014.6
20260506070403 49 275 0.0 0.9 0.00 0.13 0.02 98 1014.6
20260506062403 48 178 4.3 6.1 0.00 0.13 0.02 98 1014.3
20260506061903 48 188 1.7 4.3 0.00 0.13 0.02 98 1014.3
20260506061403 48 188 0.9 6.1 0.00 0.13 0.02 98 1014.4
20260506060403 48 183 1.7 4.3 0.00 0.13 0.02 98 1014.4
20260506051403 48 182 0.9 1.7 0.00 0.13 0.02 99 1014.1
20260506050903 48 181 1.7 4.3 0.00 0.13 0.02 99 1014.0
20260506050403 48 184 2.6 4.3 0.00 0.13 0.02 99 1014.0
20260506044903 48 177 4.3 6.1 0.00 0.13 0.02 99 1014.0
20260506044403 48 176 4.3 6.1 0.00 0.13 0.02 99 1014.0
20260506043903 48 182 4.3 6.1 0.00 0.13 0.02 99 1014.1
20260506043403 48 173 2.6 5.2 0.00 0.13 0.02 99 1014.1
20260506042903 48 176 4.3 5.2 0.00 0.13 0.02 99 1014.1
20260506042403 48 181 5.2 7.0 0.00 0.13 0.02 99 1014.1
20260506041403 48 181 4.3 6.1 0.00 0.13 0.02 99 1014.2
20260506040903 48 190 3.5 5.2 0.00 0.13 0.02 99 1014.2
20260506040403 48 188 1.7 2.6 0.00 0.13 0.02 99 1014.2
20260506035403 48 190 1.7 2.6 0.00 0.13 0.02 99 1014.3
20260506034903 48 190 1.7 4.3 0.00 0.13 0.02 99 1014.3
20260506034403 48 190 2.6 4.3 0.00 0.13 0.02 99 1014.3
20260506033903 48 190 1.7 6.1 0.00 0.13 0.02 99 1014.3
20260506033403 48 188 2.6 5.2 0.00 0.13 0.02 99 1014.3
20260506030903 48 174 2.6 4.3 0.00 0.13 0.02 99 1014.4
20260506030403 48 174 2.6 4.3 0.00 0.13 0.02 98 1014.4
20260506025903 48 174 0.9 4.3 0.00 0.13 0.02 98 1014.4
20260506025403 48 174 0.0 2.6 0.00 0.13 0.02 98 1014.4
20260506024903 48 174 1.7 4.3 0.00 0.13 0.02 98 1014.4
20260506023903 48 179 3.5 5.2 0.00 0.13 0.02 98 1014.4
20260506023403 48 177 3.5 6.1 0.00 0.13 0.02 98 1014.4
20260506022903 48 167 4.3 6.1 0.00 0.13 0.02 98 1014.4
20260506022403 48 200 3.5 7.8 0.00 0.13 0.02 98 1014.4
20260506021903 49 187 4.3 6.1 0.00 0.13 0.02 98 1014.4
20260506020903 49 197 1.7 4.3 0.00 0.13 0.02 98 1014.4
20260506020403 49 197 3.5 5.2 0.00 0.13 0.02 98 1014.4
20260506015903 49 214 2.6 4.3 0.00 0.13 0.02 98 1014.4
20260506015403 49 215 2.6 4.3 0.00 0.13 0.02 98 1014.4
20260506014403 49 217 1.7 4.3 0.00 0.13 0.02 98 1014.5
20260506013903 49 219 2.6 4.3 0.00 0.13 0.02 98 1014.7
20260506013403 49 238 1.7 2.6 0.00 0.13 0.02 98 1014.7
20260506012903 49 230 0.9 2.6 0.00 0.13 0.02 98 1014.6
20260506011903 49 230 2.6 5.2 0.00 0.13 0.02 98 1014.8
20260506011403 49 231 0.9 2.6 0.00 0.13 0.02 98 1014.8
20260506010903 49 231 0.9 2.6 0.00 0.13 0.02 98 1014.8
20260506010403 49 231 2.6 2.6 0.01 0.13 0.02 98 1014.9
20260506005903 49 246 2.6 2.6 0.01 0.13 0.02 98 1015.0
20260506004903 50 246 0.0 2.6 0.01 0.13 0.02 98 1015.0
20260506004403 50 247 0.0 1.7 0.01 0.13 0.02 98 1015.1
20260506003903 50 247 0.0 0.9 0.01 0.13 0.02 98 1015.2
20260506003403 50 247 0.0 0.9 0.01 0.13 0.02 98 1015.2
20260506002903 50 246 0.0 1.7 0.01 0.13 0.02 98 1015.2
20260506002403 50 246 0.9 2.6 0.01 0.13 0.02 98 1015.3
20260506001403 50 211 1.7 2.6 0.01 0.13 0.02 98 1015.3
20260506000903 50 201 0.0 0.0 0.01 0.13 0.02 98 1015.3
20260506000403 50 201 0.9 2.6 0.00 0.12 0.01 98 1015.3
20260505235903 50 198 0.0 0.0 0.01 0.12 0.01 98 1015.3
20260505235403 50 198 0.0 0.0 0.01 0.12 0.01 98 1015.3
20260505234903 50 198 0.9 2.6 0.01 0.12 0.01 98 1015.4
20260505234403 50 198 1.7 4.3 0.01 0.12 0.01 98 1015.4
20260505233903 50 199 2.6 6.1 0.01 0.12 0.01 98 1015.4
20260505232903 50 183 2.6 5.2 0.01 0.12 0.01 98 1015.4
20260505232403 50 196 0.9 2.6 0.01 0.12 0.01 98 1015.4
20260505231903 50 198 2.6 5.2 0.01 0.12 0.01 98 1015.4
20260505231403 50 203 4.3 6.1 0.01 0.12 0.01 98 1015.4
20260505230403 50 187 2.6 4.3 0.01 0.12 0.01 98 1015.4
20260505225903 50 187 4.3 5.2 0.00 0.11 0.00 98 1015.5
20260505225403 50 188 3.5 5.2 0.00 0.11 0.00 98 1015.6
20260505224903 50 188 0.9 4.3 0.00 0.11 0.00 98 1015.6
20260505223403 50 188 4.3 5.2 0.00 0.11 0.00 98 1015.6
20260505222403 50 163 4.3 6.1 0.00 0.11 0.00 97 1015.5
20260505220903 50 171 4.3 6.1 0.00 0.11 0.00 97 1015.6
20260505220403 50 167 4.3 6.1 0.00 0.11 0.00 97 1015.6